Total_Precipitation_Accumulation
2.57 2.71 3.22 3.03 2.53 2.41 2.52 2.53 2.64 2.55 2.56 2.65 2.63 2.51 2.37 2.31 2.19 2.19 2.18 2.14 2.11 2.18 2.33 2.42 2.38 2.34 2.31 2.18 2.11 2.21 2.27 2.16 2.40 2.42 2.52 2.56 2.52 2.58 2.68 2.72 2.76 1.93 1.71
2.08 2.08 2.57 2.58 2.37 2.42 2.43 2.51 2.59 2.44 2.40 2.47 2.51 2.42 2.27 2.16 2.17 2.14 2.10 2.11 2.13 2.22 2.39 2.40 2.19 2.09 1.96 1.81 1.80 2.00 2.15 2.24 2.49 2.65 2.84 2.86 2.86 2.86 2.91 2.89 2.84 1.83 1.71
1.66 1.64 1.87 2.14 2.07 2.20 2.24 2.20 2.22 2.14 2.14 2.23 2.30 2.36 2.37 2.28 2.25 2.17 2.08 2.14 2.16 2.14 2.25 2.22 2.00 1.86 1.70 1.58 1.62 1.90 2.12 2.43 2.88 3.10 3.46 3.04 2.59 3.00 2.96 2.87 2.52 1.78 1.69
1.32 1.43 1.53 1.94 1.98 1.87 1.78 1.85 2.00 1.94 1.90 1.95 2.12 2.35 2.49 2.52 2.40 2.32 2.23 2.21 2.15 2.09 2.25 2.12 1.88 1.65 1.48 1.45 1.59 1.80 2.07 2.45 2.97 3.49 3.78 2.89 2.11 2.45 2.47 2.32 2.22 1.84 1.67
1.07 1.27 1.56 1.76 1.77 1.65 1.56 1.65 1.81 1.73 1.75 1.82 1.91 2.16 2.34 2.48 2.58 2.54 2.35 2.17 2.04 2.06 2.15 2.00 1.76 1.50 1.32 1.32 1.52 1.73 1.96 2.48 3.08 3.30 2.89 2.76 2.52 2.35 2.14 2.06 2.09 1.85 1.58
0.97 1.15 1.43 1.62 1.55 1.42 1.39 1.52 1.64 1.64 1.69 1.72 1.73 1.97 2.14 2.20 2.25 2.30 2.26 2.03 1.89 1.92 1.93 2.06 1.75 1.50 1.36 1.39 1.56 1.72 1.95 2.46 2.83 2.48 2.18 2.33 2.12 2.16 2.11 2.18 2.22 2.04 1.68
0.98 1.17 1.32 1.50 1.46 1.43 1.47 1.46 1.49 1.62 1.62 1.57 1.63 1.82 2.03 2.05 2.19 2.18 2.01 1.75 1.66 1.81 1.86 1.94 1.79 1.56 1.40 1.42 1.49 1.63 1.96 2.33 2.22 1.98 2.05 2.29 1.85 1.75 2.05 2.33 2.56 2.36 1.95
0.87 1.04 1.18 1.38 1.41 1.43 1.44 1.41 1.43 1.43 1.42 1.48 1.59 1.74 1.78 1.85 2.00 1.95 1.85 1.71 1.55 1.70 1.74 1.67 1.79 1.62 1.47 1.38 1.39 1.44 1.70 1.94 1.69 1.63 1.86 2.01 1.58 1.72 2.15 2.49 2.82 2.66 2.28
0.85 0.96 1.18 1.35 1.40 1.40 1.41 1.37 1.43 1.49 1.41 1.42 1.51 1.66 1.75 1.74 1.70 1.64 1.70 1.72 1.55 1.55 1.53 1.50 1.67 1.74 1.57 1.41 1.34 1.41 1.62 1.95 1.78 1.69 1.59 1.67 1.57 1.82 2.31 2.55 2.73 2.65 2.40
1.25 1.20 1.16 1.18 1.27 1.31 1.27 1.40 1.52 1.55 1.46 1.41 1.50 1.67 1.82 1.71 1.62 1.54 1.46 1.59 1.59 1.50 1.44 1.42 1.57 1.69 1.50 1.47 1.46 1.61 1.80 1.89 1.80 1.77 1.70 1.49 1.59 1.95 2.35 2.48 2.67 2.58 2.38
1.84 1.83 1.53 1.32 1.29 1.37 1.26 1.31 1.64 1.75 1.65 1.71 1.85 1.95 2.09 2.09 1.87 1.85 1.77 1.87 1.79 1.71 1.68 1.69 1.70 1.85 1.64 1.45 1.57 1.79 1.77 1.80 2.15 2.19 1.70 1.43 1.74 2.27 2.54 2.62 2.63 2.47 2.37
2.31 2.31 1.97 1.71 1.44 1.29 1.14 1.39 1.78 1.76 1.87 2.04 2.18 2.09 2.35 2.56 2.42 1.94 2.19 2.52 2.44 2.39 2.24 2.21 2.14 1.95 1.87 1.71 2.10 2.38 1.90 2.11 2.46 2.32 1.84 1.78 2.26 2.78 3.14 3.08 2.73 2.40 2.25
2.66 2.51 2.12 1.91 1.70 1.42 1.49 1.47 1.70 2.02 2.28 2.19 2.02 2.05 2.46 2.37 2.15 2.14 2.35 2.55 2.73 2.58 2.43 2.49 2.56 2.32 2.45 2.81 2.96 2.74 2.25 2.35 2.46 2.39 2.13 2.19 2.75 3.47 3.83 3.65 3.13 2.69 2.41
2.80 2.53 2.23 2.00 1.79 1.67 1.62 1.61 1.74 1.87 2.10 2.16 2.27 2.19 2.40 2.78 2.70 2.65 2.83 2.82 2.90 3.00 3.32 3.14 3.26 3.06 2.94 2.93 3.05 2.83 2.63 2.69 2.70 2.99 3.09 2.93 3.19 3.66 4.17 4.07 3.55 3.10 2.87
2.94 2.79 2.53 2.16 2.11 2.04 2.16 2.25 1.96 2.01 2.12 2.37 2.67 2.63 2.60 2.93 2.93 2.96 3.03 3.13 2.94 2.99 3.20 3.50 3.38 3.46 3.50 3.21 2.88 2.75 2.91 2.97 3.06 3.13 3.22 3.38 3.26 3.38 4.05 4.29 3.94 3.51 3.32
3.41 3.43 3.17 2.75 2.71 2.70 2.59 2.60 2.53 2.30 2.47 2.58 2.76 2.71 2.79 3.04 3.20 3.16 2.99 3.08 2.94 2.91 3.06 3.33 3.38 3.82 3.82 3.69 3.18 2.94 3.02 3.09 3.13 3.20 3.17 3.48 3.37 3.20 3.63 4.04 4.16 3.99 3.77
3.58 3.79 3.74 3.53 3.54 3.50 3.28 3.03 2.81 2.72 2.68 2.94 3.06 2.95 2.99 3.03 3.22 3.19 3.12 2.97 2.94 3.03 3.28 3.38 3.44 3.79 3.79 3.72 3.54 3.26 3.13 2.90 2.80 2.91 2.93 3.07 3.00 2.99 3.26 3.62 3.92 4.06 4.11
3.79 4.01 4.23 4.13 4.16 4.03 3.90 3.64 3.30 3.15 3.17 3.12 3.04 3.08 2.98 3.06 3.12 3.31 3.15 2.88 2.97 2.99 3.27 3.66 3.78 4.00 4.13 4.08 3.79 3.43 3.20 3.07 2.86 2.86 2.69 2.65 2.91 2.58 2.89 3.31 3.56 3.78 4.30
4.12 4.52 4.91 4.97 4.90 4.59 4.25 4.07 3.94 3.76 3.56 3.30 3.23 3.17 3.02 2.97 2.95 3.22 3.14 3.06 3.08 3.34 3.42 3.25 3.87 4.18 4.32 4.24 3.50 3.32 2.95 2.83 2.71 2.54 2.60 2.47 2.66 2.72 2.80 2.80 2.95 3.23 4.13
4.60 5.23 5.34 5.35 5.61 5.36 5.02 4.82 4.62 4.19 3.83 3.53 3.40 3.25 2.98 2.92 2.86 3.19 2.98 2.98 3.12 3.49 3.65 3.76 4.23 4.26 4.11 4.25 3.46 3.07 2.66 2.32 2.28 2.31 2.17 2.20 2.28 2.23 2.50 2.92 3.27 3.01 3.53
4.42 5.05 5.71 5.90 5.77 5.55 5.26 4.82 4.45 4.03 3.79 3.52 3.22 3.00 2.92 2.89 3.01 3.48 3.14 3.45 3.36 3.45 3.53 3.69 4.00 4.00 3.77 4.05 4.02 3.31 2.46 1.96 1.97 1.86 1.87 1.98 1.93 1.95 2.28 2.84 3.20 3.27 3.09
3.84 4.30 4.78 5.10 4.79 4.44 4.26 4.18 4.05 3.96 3.54 3.39 3.32 3.38 3.07 3.09 3.10 3.17 3.43 3.34 3.39 3.53 3.33 3.42 3.79 3.65 3.21 3.61 3.99 3.99 3.12 2.52 2.00 1.49 1.64 1.72 1.83 2.02 2.06 2.14 2.61 3.14 3.08
3.31 3.45 3.62 3.84 3.91 3.92 3.97 4.05 4.18 4.33 4.01 3.87 3.80 3.72 3.24 3.14 3.14 3.22 3.16 3.11 3.28 3.23 3.20 3.20 3.40 3.53 3.36 3.35 3.74 4.10 3.48 2.80 2.21 1.67 1.57 1.53 1.84 2.18 2.15 2.15 2.39 2.81 2.99
2.65 2.89 3.39 3.61 3.70 3.89 4.14 4.15 4.19 4.16 4.09 4.07 4.16 4.09 3.90 3.62 3.39 3.15 2.98 2.95 2.97 2.87 2.98 2.74 3.03 3.26 3.44 3.17 3.28 3.28 3.16 3.07 2.90 2.23 1.74 1.59 1.84 2.07 2.18 2.17 2.30 2.61 2.87
2.22 2.54 3.14 3.70 3.91 4.05 4.24 4.34 4.59 4.41 4.26 4.12 4.17 4.24 4.01 3.74 3.41 3.02 2.99 3.00 2.95 2.83 2.70 2.63 2.88 2.84 2.96 3.00 3.04 3.03 3.07 3.04 2.83 2.60 2.21 2.01 1.89 1.64 1.67 1.85 2.11 2.45 2.70
2.34 2.65 3.09 3.57 3.89 4.04 4.13 4.15 4.24 4.25 4.25 4.02 3.90 3.61 3.20 3.08 2.98 2.74 2.70 2.74 2.67 2.69 2.70 2.65 2.67 2.64 2.72 2.83 2.85 2.84 2.96 2.95 2.90 2.93 2.61 2.34 2.10 1.76 1.65 1.72 1.91 2.16 2.37